Zurück zum Katalog

STARLINK-5177

AktivKommunikationVLEO
NORAD 54090·PAYLOAD·🇺🇸 United States

Gestartet Oct 20, 2022 von Cape Canaveral Space Force Station

Loading…

Nächste Überflüge (nächste 24 Stunden)

TLE

AktuellSource: CelesTrak SupGP

Epoche: Sep 14, 2026, 21:44 UTC

1 54090C 22136AR  26257.90604167  .00347680  00000+0  14979-1 0  2572
2 54090  53.1611 203.3791 0001275  95.7965 103.5097 15.21885837    12

Verfolge STARLINK-5177 in Echtzeit mit AllMySat

Download on the App Store